Regional Weather Roundup
Issued by NWS

Home | Current Version | Previous Version | Text Only | Print | Product List | Glossary On
Versions: 1 2 3 4 5 6 7 8 9 10 11 12 13 14 15 16 17 18 19 20 21 22 23 24 25 26 27 28 29 30 31 32 33 34 35 36 37 38 39 40 41 42 43 44 45 46 47 48 49 50
000
ASPQ40 PGUM 020514
RWRPQ
WEATHER ROUNDUP FOR THE MARIANAS AND MICRONESIA
NATIONAL WEATHER SERVICE TIYAN GU
300 PM CHST TUE JUN 02 2015

GUZ001>004-020600-
MARIANA ISLANDS-

CITY           SKY/WX    TMP DP  RH WIND       PRES   REMARKS
GUAM AIRPORT   SUNNY     86  73  66 E18       29.82S HX  93
ANDERSEN AFB   PTSUNNY   82  75  78 E21       29.83S
ROTA AIRPORT   NOT AVBL
TINIAN AP      NOT AVBL
SAIPAN AP      PTSUNNY   79  75  89 E22       29.84F FOG

$$

PMZ161-020600-
REPUBLIC OF PALAU-

CITY           SKY/WX    TMP DP  RH WIND       PRES   REMARKS
KOROR AP       PTSUNNY   84  77  79 E5        29.81F HX  94
KOROR WSO      CLOUDY    86  77  74 E5        29.81F HX  97

$$

PMZ171>174-020600-
FEDERATED STATES OF MICRONESIA-

CITY           SKY/WX    TMP DP  RH WIND       PRES   REMARKS
YAP AIRPORT    PTSUNNY   93  77  59 E9        29.80F HX 107
CHUUK AP       CLOUDY    84  77  79 VRB6      29.79F HX  94
POHNPEI AP     CLOUDY    81  77  89 NW6       29.79F
POHNPEI WSO    CLOUDY    77  77 100 SW3       29.82F
KOSRAE AP      NOT AVBL

$$

PMZ181-020600-
REPUBLIC OF THE MARSHALL ISLANDS-

CITY           SKY/WX    TMP DP  RH WIND       PRES   REMARKS
KWAJALEIN AP   SUNNY     84  73  70 NE16      29.79S HX  91
MAJURO AP      NOT AVBL
MAJURO WSO     PTSUNNY   84  77  79 E9        29.77S HX  94

$$



USA.gov is the U.S. government's official web portal to all federal, state and local government web resources and services.